Flag for Germany Weather past 2 weeks in Bochum, North Rhine-Westphalia, Germany

Now
51 °F

Rain. Overcast.


Feels Like: 50 °F
Forecast: 49 / 60 °F
Wind: 5 mph from South

Location: Duesseldorf

Current Time: Oct 25, 2014 at 3:52:38 AM

Latest Report: Oct 25, 2014 at 3:00 AM


Visibility: 9 mi

Pressure: 30.05 "Hg

Humidity: 92%

Dew point: 49 °F

Location of BochumLocation

Historic Weather in Bochum — Graph

°F

Bochum temperature yesterday

Maximum temperature yesterday: 57 °F (at 8:00 PM)
Minimum temperature yesterday: 53 °F (at 5:00 AM)
Average temperature yesterday: 54 °F

Past Weeks' High & Low Weather Summary

 TemperatureHumidityPressure
High74 °F (Oct 19, 2:00 PM)99% (Oct 11, 8:00 AM)30.24 "Hg (Oct 11, 8:00 AM)
Low44 °F (Oct 21, 11:00 PM)54% (Oct 14, 3:00 PM)29.50 "Hg (Oct 21, 4:00 PM)
Average57 °F81%29.92 "Hg
* Reported Oct 10 2:00 AM — Oct 25 2:00 AM, Bochum, Weather by CustomWeather, © 2014

Note: Actual official high and low records may vary slightly from our data, if they occured in-between our weather recording intervals... More about our weather records

Advertising

Bochum weather history for previous 24 hours

 ConditionsComfort  
Time TempWeatherWind HumidityBarometerVisibility
2:00 AM
Oct 25
53 °FOvercast.3 mph79%30.06 "Hg12 mi
1:00 AM54 °FOvercast.5 mph77%30.06 "Hg19 mi
12:00 AM54 °FOvercast.5 mph77%30.06 "Hg16 mi
11:00 PM
Oct 24
55 °FOvercast.5 mph73%30.07 "Hg19 mi
10:00 PM55 °FOvercast.5 mph73%30.06 "Hg22 mi
9:00 PM56 °FOvercast.6 mph66%30.06 "Hg22 mi
8:00 PM57 °FOvercast.6 mph65%30.06 "Hg25 mi
7:00 PM56 °FOvercast.6 mph66%30.06 "Hg25 mi
6:00 PM56 °FOvercast.5 mph69%30.07 "Hg28 mi
4:00 PM56 °FOvercast.8 mph67%30.09 "Hg34 mi
3:00 PM56 °FOvercast.6 mph71%30.11 "Hg34 mi
2:00 PM55 °FOvercast.7 mph72%30.13 "Hg31 mi
1:00 PM56 °FOvercast.7 mph72%30.15 "Hg25 mi
12:00 PM54 °FOvercast.6 mph72%30.16 "Hg25 mi
10:00 AM54 °FOvercast.5 mph74%30.16 "Hg22 mi
9:00 AM53 °FOvercast.5 mph80%30.16 "Hg14 mi
8:00 AM53 °FOvercast.6 mph80%30.16 "Hg16 mi
7:00 AM53 °FOvercast.5 mph79%30.16 "Hg19 mi
6:00 AM53 °FOvercast.3 mph80%30.16 "Hg19 mi
5:00 AM53 °FOvercast.5 mph81%30.16 "Hg19 mi
4:00 AM53 °FOvercast.3 mph82%30.17 "Hg19 mi
3:00 AM54 °FOvercast.3 mph81%30.18 "Hg19 mi
Weather by CustomWeather, © 2014

See weather overviewHow to use our weather pages